2021-006Z (47436 NORAD) Tracking and Keplerian Element Data

This shows tracking and keplerian element data for the satellite.

Feedback or suggestion? Click here.




ElementValue
Catalog47436
Name2021-006Z
Epoch Orbit473
Epoch Day53.90010834
Epoch Year2021
RAAN117.1168
Inclination97.5038
Eccentricity0.0016023
Argument of Perigee137.7061
Mean Anonmoly222.5409
Mean Motion15.12908279
Decay Rate4.16E-06
L11 47436U 21006Z 21053.90010834 .00000416 00000-0 27244-4 0 9993
L22 47436 97.5038 117.1168 0016023 137.7061 222.5409 15.12908279 4732

Live tracking and technical data element details for 2021-006Z (NORAD 47436). 2021-006Z can be tracked NOW for your location showing map with azimuth and elevation plus other details from your city location.

Track the satellite on the map from your city or location and see movement details for azimuth, elevation, latitude, longitude, range, height, and movement on the map or in text.







IsCatalogInMostPopularTable: catalog: 47436, numindb: 17
Update: records affected: 1



GetName: 47436 2021-006Z

Hit Count: updated at: Fri, 16 Apr 2021 10:58:03 GMT